Year,Month,Day,Hour,Minute,Value (Times are PST for temperature in C)
2015,12,03,00,00,10.70
2015,12,03,00,01,10.70
2015,12,03,00,02,10.70
2015,12,03,00,03,10.70
2015,12,03,00,04,10.70
2015,12,03,00,05,10.70
2015,12,03,00,06,10.70
2015,12,03,00,07,10.70
2015,12,03,00,08,10.70
2015,12,03,00,09,10.70
2015,12,03,00,10,10.70
2015,12,03,00,11,10.60
2015,12,03,00,12,10.60
2015,12,03,00,13,10.60
2015,12,03,00,14,10.60
2015,12,03,00,15,10.60
2015,12,03,00,16,10.60
2015,12,03,00,17,10.60
2015,12,03,00,18,10.60
2015,12,03,00,19,10.50
2015,12,03,00,20,10.50
2015,12,03,00,21,10.50
2015,12,03,00,22,10.50
2015,12,03,00,23,10.40
2015,12,03,00,24,10.40
2015,12,03,00,25,10.40
2015,12,03,00,26,10.30
2015,12,03,00,27,10.30
2015,12,03,00,28,10.20
2015,12,03,00,29,10.20
2015,12,03,00,30,10.20
2015,12,03,00,31,10.10
2015,12,03,00,32,10.10
2015,12,03,00,33,10.10
2015,12,03,00,34,10.10
2015,12,03,00,35,10.10
2015,12,03,00,36,10.10
2015,12,03,00,37,10.10
2015,12,03,00,38,10.00
2015,12,03,00,39,10.00
2015,12,03,00,40,10.00
2015,12,03,00,41,10.00
2015,12,03,00,42,10.00
2015,12,03,00,43,10.00
2015,12,03,00,44,10.10
2015,12,03,00,45,10.20
2015,12,03,00,46,10.30
2015,12,03,00,47,10.30
2015,12,03,00,48,10.30
2015,12,03,00,49,10.30
2015,12,03,00,50,10.20
2015,12,03,00,51,10.20
2015,12,03,00,52,10.20
2015,12,03,00,53,10.20
2015,12,03,00,54,10.20
2015,12,03,00,55,10.20
2015,12,03,00,56,10.20
2015,12,03,00,57,10.20
2015,12,03,00,58,10.20
2015,12,03,00,59,10.20
2015,12,03,01,00,10.20
2015,12,03,01,01,10.20
2015,12,03,01,02,10.10
2015,12,03,01,03,10.10
2015,12,03,01,04,10.10
2015,12,03,01,05,10.00
2015,12,03,01,06,10.00
2015,12,03,01,07,9.90
2015,12,03,01,08,9.90
2015,12,03,01,09,9.90
2015,12,03,01,10,9.90
2015,12,03,01,11,9.80
2015,12,03,01,12,9.80
2015,12,03,01,13,9.80
2015,12,03,01,14,9.70
2015,12,03,01,15,9.70
2015,12,03,01,16,9.70
2015,12,03,01,17,9.60
2015,12,03,01,18,9.60
2015,12,03,01,19,9.50
2015,12,03,01,20,9.50
2015,12,03,01,21,9.40
2015,12,03,01,22,9.40
2015,12,03,01,23,9.30
2015,12,03,01,24,9.20
2015,12,03,01,25,9.20
2015,12,03,01,26,9.20
2015,12,03,01,27,9.20
2015,12,03,01,28,9.10
2015,12,03,01,29,9.10
2015,12,03,01,30,9.10
2015,12,03,01,31,9.00
2015,12,03,01,32,8.90
2015,12,03,01,33,8.90
2015,12,03,01,34,8.80
2015,12,03,01,35,8.80
2015,12,03,01,36,8.80
2015,12,03,01,37,8.70
2015,12,03,01,38,8.70
2015,12,03,01,39,8.70
2015,12,03,01,40,8.70
2015,12,03,01,41,8.60
2015,12,03,01,42,8.60
2015,12,03,01,43,8.60
2015,12,03,01,44,8.50
2015,12,03,01,45,8.50
2015,12,03,01,46,8.50
2015,12,03,01,47,8.40
2015,12,03,01,48,8.40
2015,12,03,01,49,8.40
2015,12,03,01,50,8.40
2015,12,03,01,51,8.40
2015,12,03,01,52,8.40
2015,12,03,01,53,8.40
2015,12,03,01,54,8.40
2015,12,03,01,55,8.40
2015,12,03,01,56,8.40
2015,12,03,01,57,8.40
2015,12,03,01,58,8.40
2015,12,03,01,59,8.40
2015,12,03,02,00,8.40
2015,12,03,02,01,8.40
2015,12,03,02,02,8.40
2015,12,03,02,03,8.40
2015,12,03,02,04,8.40
2015,12,03,02,05,8.40
2015,12,03,02,06,8.40
2015,12,03,02,07,8.40
2015,12,03,02,08,8.40
2015,12,03,02,09,8.40
2015,12,03,02,10,8.40
2015,12,03,02,11,8.40
2015,12,03,02,12,8.40
2015,12,03,02,13,8.40
2015,12,03,02,14,8.40
2015,12,03,02,15,8.40
2015,12,03,02,16,8.40
2015,12,03,02,17,8.40
2015,12,03,02,18,8.40
2015,12,03,02,19,8.40
2015,12,03,02,20,8.40
2015,12,03,02,21,8.40
2015,12,03,02,22,8.40
2015,12,03,02,23,8.40
2015,12,03,02,24,8.40
2015,12,03,02,25,8.40
2015,12,03,02,26,8.40
2015,12,03,02,27,8.50
2015,12,03,02,28,8.50
2015,12,03,02,29,8.50
2015,12,03,02,30,8.50
2015,12,03,02,31,8.50
2015,12,03,02,32,8.50
2015,12,03,02,33,8.50
2015,12,03,02,34,8.50
2015,12,03,02,35,8.50
2015,12,03,02,36,8.50
2015,12,03,02,37,8.50
2015,12,03,02,38,8.50
2015,12,03,02,39,8.50
2015,12,03,02,40,8.50
2015,12,03,02,41,8.50
2015,12,03,02,42,8.50
2015,12,03,02,43,8.60
2015,12,03,02,44,8.60
2015,12,03,02,45,8.60
2015,12,03,02,46,8.60
2015,12,03,02,47,8.60
2015,12,03,02,48,8.60
2015,12,03,02,49,8.60
2015,12,03,02,50,8.60
2015,12,03,02,51,8.60
2015,12,03,02,52,8.60
2015,12,03,02,53,8.60
2015,12,03,02,54,8.60
2015,12,03,02,55,8.60
2015,12,03,02,56,8.60
2015,12,03,02,57,8.60
2015,12,03,02,58,8.60
2015,12,03,02,59,8.60
2015,12,03,03,00,8.60
2015,12,03,03,01,8.60
2015,12,03,03,02,8.60
2015,12,03,03,03,8.60
2015,12,03,03,04,8.50
2015,12,03,03,05,8.50
2015,12,03,03,06,8.50
2015,12,03,03,07,8.50
2015,12,03,03,08,8.50
2015,12,03,03,09,8.50
2015,12,03,03,10,8.50
2015,12,03,03,11,8.50
2015,12,03,03,12,8.50
2015,12,03,03,13,8.50
2015,12,03,03,14,8.50
2015,12,03,03,15,8.50
2015,12,03,03,16,8.50
2015,12,03,03,17,8.50
2015,12,03,03,18,8.60
2015,12,03,03,19,8.60
2015,12,03,03,20,8.60
2015,12,03,03,21,8.60
2015,12,03,03,22,8.50
2015,12,03,03,23,8.50
2015,12,03,03,24,8.50
2015,12,03,03,25,8.50
2015,12,03,03,26,8.50
2015,12,03,03,27,8.50
2015,12,03,03,28,8.50
2015,12,03,03,29,8.50
2015,12,03,03,30,8.50
2015,12,03,03,31,8.50
2015,12,03,03,32,8.50
2015,12,03,03,33,8.50
2015,12,03,03,34,8.40
2015,12,03,03,35,8.50
2015,12,03,03,36,8.40
2015,12,03,03,37,8.40
2015,12,03,03,38,8.40
2015,12,03,03,39,8.40
2015,12,03,03,40,8.40
2015,12,03,03,41,8.40
2015,12,03,03,42,8.40
2015,12,03,03,43,8.40
2015,12,03,03,44,8.40
2015,12,03,03,45,8.40
2015,12,03,03,46,8.40
2015,12,03,03,47,8.40
2015,12,03,03,48,8.30
2015,12,03,03,49,8.30
2015,12,03,03,50,8.40
2015,12,03,03,51,8.40
2015,12,03,03,52,8.40
2015,12,03,03,53,8.40
2015,12,03,03,54,8.30
2015,12,03,03,55,8.40
2015,12,03,03,56,8.40
2015,12,03,03,57,8.40
2015,12,03,03,58,8.40
2015,12,03,03,59,8.40
2015,12,03,04,00,8.40
2015,12,03,04,01,8.40
2015,12,03,04,02,8.40
2015,12,03,04,03,8.40
2015,12,03,04,04,8.40
2015,12,03,04,05,8.50
2015,12,03,04,06,8.50
2015,12,03,04,07,8.50
2015,12,03,04,08,8.50
2015,12,03,04,09,8.50
2015,12,03,04,10,8.60
2015,12,03,04,11,8.60
2015,12,03,04,12,8.60
2015,12,03,04,13,8.60
2015,12,03,04,14,8.60
2015,12,03,04,15,8.60
2015,12,03,04,16,8.60
2015,12,03,04,17,8.60
2015,12,03,04,18,8.60
2015,12,03,04,19,8.60
2015,12,03,04,20,8.70
2015,12,03,04,21,8.70
2015,12,03,04,22,8.70
2015,12,03,04,23,8.70
2015,12,03,04,24,8.70
2015,12,03,04,25,8.70
2015,12,03,04,26,8.70
2015,12,03,04,27,8.70
2015,12,03,04,28,8.60
2015,12,03,04,29,8.70
2015,12,03,04,30,8.60
2015,12,03,04,31,8.60
2015,12,03,04,32,8.60
2015,12,03,04,33,8.60
2015,12,03,04,34,8.60
2015,12,03,04,35,8.60
2015,12,03,04,36,8.60
2015,12,03,04,37,8.60
2015,12,03,04,38,8.70
2015,12,03,04,39,8.70
2015,12,03,04,40,8.70
2015,12,03,04,41,8.70
2015,12,03,04,42,8.70
2015,12,03,04,43,8.70
2015,12,03,04,44,8.70
2015,12,03,04,45,8.70
2015,12,03,04,46,8.70
2015,12,03,04,47,8.70
2015,12,03,04,48,8.70
2015,12,03,04,49,8.70
2015,12,03,04,50,8.70
2015,12,03,04,51,8.70
2015,12,03,04,52,8.70
2015,12,03,04,53,8.70
2015,12,03,04,54,8.80
2015,12,03,04,55,8.80
2015,12,03,04,56,8.80
2015,12,03,04,57,8.80
2015,12,03,04,58,8.80
2015,12,03,04,59,8.80
2015,12,03,05,00,8.80
2015,12,03,05,01,8.80
2015,12,03,05,02,8.80
2015,12,03,05,03,8.80
2015,12,03,05,04,8.80
2015,12,03,05,05,8.80
2015,12,03,05,06,8.80
2015,12,03,05,07,8.80
2015,12,03,05,08,8.80
2015,12,03,05,09,8.80
2015,12,03,05,10,8.80
2015,12,03,05,11,8.80
2015,12,03,05,12,8.80
2015,12,03,05,13,8.80
2015,12,03,05,14,8.80
2015,12,03,05,15,8.80
2015,12,03,05,16,8.80
2015,12,03,05,17,8.80
2015,12,03,05,18,8.80
2015,12,03,05,19,8.80
2015,12,03,05,20,8.80
2015,12,03,05,21,8.80
2015,12,03,05,22,8.80
2015,12,03,05,23,8.80
2015,12,03,05,24,8.80
2015,12,03,05,25,8.80
2015,12,03,05,26,8.70
2015,12,03,05,27,8.70
2015,12,03,05,28,8.70
2015,12,03,05,29,8.70
2015,12,03,05,30,8.70
2015,12,03,05,31,8.70
2015,12,03,05,32,8.70
2015,12,03,05,33,8.80
2015,12,03,05,34,8.80
2015,12,03,05,35,8.80
2015,12,03,05,36,8.80
2015,12,03,05,37,8.80
2015,12,03,05,38,8.80
2015,12,03,05,39,8.80
2015,12,03,05,40,8.80
2015,12,03,05,41,8.80
2015,12,03,05,42,8.80
2015,12,03,05,43,8.80
2015,12,03,05,44,8.80
2015,12,03,05,45,8.80
2015,12,03,05,46,8.80
2015,12,03,05,47,8.80
2015,12,03,05,48,8.80
2015,12,03,05,49,8.80
2015,12,03,05,50,8.90
2015,12,03,05,51,8.90
2015,12,03,05,52,8.90
2015,12,03,05,53,8.90
2015,12,03,05,54,8.90
2015,12,03,05,55,8.80
2015,12,03,05,56,8.80
2015,12,03,05,57,8.80
2015,12,03,05,58,8.80
2015,12,03,05,59,8.80
2015,12,03,06,00,8.80
2015,12,03,06,01,8.80
2015,12,03,06,02,8.80
2015,12,03,06,03,8.80
2015,12,03,06,04,8.80
2015,12,03,06,05,8.80
2015,12,03,06,06,8.80
2015,12,03,06,07,8.80
2015,12,03,06,08,8.80
2015,12,03,06,09,8.80
2015,12,03,06,10,8.80
2015,12,03,06,11,8.80
2015,12,03,06,12,8.80
2015,12,03,06,13,8.80
2015,12,03,06,14,8.80
2015,12,03,06,15,8.80
2015,12,03,06,16,8.80
2015,12,03,06,17,8.80
2015,12,03,06,18,8.80
2015,12,03,06,19,8.80
2015,12,03,06,20,8.80
2015,12,03,06,21,8.80
2015,12,03,06,22,8.80
2015,12,03,06,23,8.80
2015,12,03,06,24,8.80
2015,12,03,06,25,8.80
2015,12,03,06,26,8.80
2015,12,03,06,27,8.80
2015,12,03,06,28,8.80
2015,12,03,06,29,8.80
2015,12,03,06,30,8.80
2015,12,03,06,31,8.80
2015,12,03,06,32,8.80
2015,12,03,06,33,8.80
2015,12,03,06,34,8.80
2015,12,03,06,35,8.80
2015,12,03,06,36,8.80
2015,12,03,06,37,8.80
2015,12,03,06,38,8.80
2015,12,03,06,39,8.80
2015,12,03,06,40,8.80
2015,12,03,06,41,8.80
2015,12,03,06,42,8.80
2015,12,03,06,43,8.90
2015,12,03,06,44,8.90
2015,12,03,06,45,8.90
2015,12,03,06,46,8.90
2015,12,03,06,47,8.90
2015,12,03,06,48,8.90
2015,12,03,06,49,8.90
2015,12,03,06,50,8.90
2015,12,03,06,51,8.90
2015,12,03,06,52,9.00
2015,12,03,06,53,9.00
2015,12,03,06,54,9.00
2015,12,03,06,55,9.10
2015,12,03,06,56,9.10
2015,12,03,06,57,9.10
2015,12,03,06,58,9.20
2015,12,03,06,59,9.20
2015,12,03,07,00,9.20
2015,12,03,07,01,9.20
2015,12,03,07,02,9.20
2015,12,03,07,03,9.20
2015,12,03,07,04,9.20
2015,12,03,07,05,9.20
2015,12,03,07,06,9.20
2015,12,03,07,07,9.20
2015,12,03,07,08,9.30
2015,12,03,07,09,9.30
2015,12,03,07,10,9.30
2015,12,03,07,11,9.30
2015,12,03,07,12,9.30
2015,12,03,07,13,9.30
2015,12,03,07,14,9.30
2015,12,03,07,15,9.30
2015,12,03,07,16,9.30
2015,12,03,07,17,9.30
2015,12,03,07,18,9.30
2015,12,03,07,19,9.30
2015,12,03,07,20,9.40
2015,12,03,07,21,9.40
2015,12,03,07,22,9.40
2015,12,03,07,23,9.40
2015,12,03,07,24,9.40
2015,12,03,07,25,9.40
2015,12,03,07,26,9.40
2015,12,03,07,27,9.40
2015,12,03,07,28,9.40
2015,12,03,07,29,9.50
2015,12,03,07,30,9.50
2015,12,03,07,31,9.40
2015,12,03,07,32,9.50
2015,12,03,07,33,9.50
2015,12,03,07,34,9.50
2015,12,03,07,35,9.40
2015,12,03,07,36,9.40
2015,12,03,07,37,9.40
2015,12,03,07,38,9.40
2015,12,03,07,39,9.40
2015,12,03,07,40,9.40
2015,12,03,07,41,9.40
2015,12,03,07,42,9.40
2015,12,03,07,43,9.40
2015,12,03,07,44,9.30
2015,12,03,07,45,9.30
2015,12,03,07,46,9.30
2015,12,03,07,47,9.30
2015,12,03,07,48,9.30
2015,12,03,07,49,9.30
2015,12,03,07,50,9.30
2015,12,03,07,51,9.30
2015,12,03,07,52,9.30
2015,12,03,07,53,9.20
2015,12,03,07,54,9.20
2015,12,03,07,55,9.20
2015,12,03,07,56,9.20
2015,12,03,07,57,9.20
2015,12,03,07,58,9.20
2015,12,03,07,59,9.20
2015,12,03,08,00,9.20
2015,12,03,08,01,9.20
2015,12,03,08,02,9.20
2015,12,03,08,03,9.10
2015,12,03,08,04,9.10
2015,12,03,08,05,9.10
2015,12,03,08,06,9.10
2015,12,03,08,07,9.10
2015,12,03,08,08,9.10
2015,12,03,08,09,9.10
2015,12,03,08,10,9.10
2015,12,03,08,11,9.10
2015,12,03,08,12,9.10
2015,12,03,08,13,9.10
2015,12,03,08,14,9.10
2015,12,03,08,15,9.10
2015,12,03,08,16,9.10
2015,12,03,08,17,9.10
2015,12,03,08,18,9.10
2015,12,03,08,19,9.10
2015,12,03,08,20,9.10
2015,12,03,08,21,9.20
2015,12,03,08,22,9.10
2015,12,03,08,23,9.20
2015,12,03,08,24,9.20
2015,12,03,08,25,9.20
2015,12,03,08,26,9.20
2015,12,03,08,27,9.20
2015,12,03,08,28,9.20
2015,12,03,08,29,9.20
2015,12,03,08,30,9.20
2015,12,03,08,31,9.20
2015,12,03,08,32,9.20
2015,12,03,08,33,9.20
2015,12,03,08,34,9.20
2015,12,03,08,35,9.10
2015,12,03,08,36,9.10
2015,12,03,08,37,9.10
2015,12,03,08,38,9.10
2015,12,03,08,39,9.10
2015,12,03,08,40,9.10
2015,12,03,08,41,9.10
2015,12,03,08,42,9.10
2015,12,03,08,43,9.10
2015,12,03,08,44,9.10
2015,12,03,08,45,9.10
2015,12,03,08,46,9.10
2015,12,03,08,47,9.10
2015,12,03,08,48,9.00
2015,12,03,08,49,9.10
2015,12,03,08,50,9.10
2015,12,03,08,51,9.00
2015,12,03,08,52,9.00
2015,12,03,08,53,9.00
2015,12,03,08,54,9.00
2015,12,03,08,55,9.00
2015,12,03,08,56,9.00
2015,12,03,08,57,9.00
2015,12,03,08,58,9.00
2015,12,03,08,59,9.00
2015,12,03,09,00,9.00
2015,12,03,09,01,9.00
2015,12,03,09,02,9.00
2015,12,03,09,03,9.00
2015,12,03,09,04,9.10
2015,12,03,09,05,9.10
2015,12,03,09,06,9.10
2015,12,03,09,07,9.10
2015,12,03,09,08,9.10
2015,12,03,09,09,9.10
2015,12,03,09,10,9.10
2015,12,03,09,11,9.10
2015,12,03,09,12,9.10
2015,12,03,09,13,9.10
2015,12,03,09,14,9.10
2015,12,03,09,15,9.10
2015,12,03,09,16,9.10
2015,12,03,09,17,9.10
2015,12,03,09,18,9.10
2015,12,03,09,19,9.10
2015,12,03,09,20,9.10
2015,12,03,09,21,9.10
2015,12,03,09,22,9.10
2015,12,03,09,23,9.10
2015,12,03,09,24,9.10
2015,12,03,09,25,9.10
2015,12,03,09,26,9.10
2015,12,03,09,27,9.10
2015,12,03,09,28,9.10
2015,12,03,09,29,9.10
2015,12,03,09,30,9.10
2015,12,03,09,31,9.10
2015,12,03,09,32,9.10
2015,12,03,09,33,9.10
2015,12,03,09,34,9.10
2015,12,03,09,35,9.10
2015,12,03,09,36,9.10
2015,12,03,09,37,9.20
2015,12,03,09,38,9.20
2015,12,03,09,39,9.20
2015,12,03,09,40,9.20
2015,12,03,09,41,9.20
2015,12,03,09,42,9.20
2015,12,03,09,43,9.30
2015,12,03,09,44,9.30
2015,12,03,09,45,9.40
2015,12,03,09,46,9.40
2015,12,03,09,47,9.50
2015,12,03,09,48,9.50
2015,12,03,09,49,9.60
2015,12,03,09,50,9.60
2015,12,03,09,51,9.60
2015,12,03,09,52,9.60
2015,12,03,09,53,9.60
2015,12,03,09,54,9.70
2015,12,03,09,55,9.70
2015,12,03,09,56,9.70
2015,12,03,09,57,9.70
2015,12,03,09,58,9.70
2015,12,03,09,59,9.70
2015,12,03,10,00,9.70
2015,12,03,10,01,9.70
2015,12,03,10,02,9.70
2015,12,03,10,03,9.70
2015,12,03,10,04,9.70
2015,12,03,10,05,9.70
2015,12,03,10,06,9.70
2015,12,03,10,07,9.60
2015,12,03,10,08,9.60
2015,12,03,10,09,9.60
2015,12,03,10,10,9.60
2015,12,03,10,11,9.50
2015,12,03,10,12,9.50
2015,12,03,10,13,9.40
2015,12,03,10,14,9.40
2015,12,03,10,15,9.40
2015,12,03,10,16,9.40
2015,12,03,10,17,9.30
2015,12,03,10,18,9.30
2015,12,03,10,19,9.30
2015,12,03,10,20,9.30
2015,12,03,10,21,9.30
2015,12,03,10,22,9.30
2015,12,03,10,23,9.30
2015,12,03,10,24,9.30
2015,12,03,10,25,9.30
2015,12,03,10,26,9.30
2015,12,03,10,27,9.30
2015,12,03,10,28,9.30
2015,12,03,10,29,9.30
2015,12,03,10,30,9.20
2015,12,03,10,31,9.20
2015,12,03,10,32,9.20
2015,12,03,10,33,9.20
2015,12,03,10,34,9.30
2015,12,03,10,35,9.30
2015,12,03,10,36,9.30
2015,12,03,10,37,9.30
2015,12,03,10,38,9.30
2015,12,03,10,39,9.30
2015,12,03,10,40,9.40
2015,12,03,10,41,9.40
2015,12,03,10,42,9.50
2015,12,03,10,43,9.50
2015,12,03,10,44,9.50
2015,12,03,10,45,9.60
2015,12,03,10,46,9.60
2015,12,03,10,47,9.60
2015,12,03,10,48,9.60
2015,12,03,10,49,9.70
2015,12,03,10,50,9.70
2015,12,03,10,51,9.70
2015,12,03,10,52,9.80
2015,12,03,10,53,9.80
2015,12,03,10,54,9.80
2015,12,03,10,55,9.80
2015,12,03,10,56,9.80
2015,12,03,10,57,9.70
2015,12,03,10,58,9.70
2015,12,03,10,59,9.70
2015,12,03,11,00,9.70
2015,12,03,11,01,9.70
2015,12,03,11,02,9.70
2015,12,03,11,03,9.70
2015,12,03,11,04,9.70
2015,12,03,11,05,9.70
2015,12,03,11,06,9.70
2015,12,03,11,07,9.70
2015,12,03,11,08,9.70
2015,12,03,11,09,9.70
2015,12,03,11,10,9.70
2015,12,03,11,11,9.70
2015,12,03,11,12,9.70
2015,12,03,11,13,9.70
2015,12,03,11,14,9.70
2015,12,03,11,15,9.70
2015,12,03,11,16,9.70
2015,12,03,11,17,9.80
2015,12,03,11,18,9.80
2015,12,03,11,19,9.80
2015,12,03,11,20,9.80
2015,12,03,11,21,9.90
2015,12,03,11,22,9.90
2015,12,03,11,23,9.90
2015,12,03,11,24,9.90
2015,12,03,11,25,9.90
2015,12,03,11,26,9.90
2015,12,03,11,27,9.90
2015,12,03,11,28,9.90
2015,12,03,11,29,10.00
2015,12,03,11,30,10.00
2015,12,03,11,31,10.00
2015,12,03,11,32,10.00
2015,12,03,11,33,10.10
2015,12,03,11,34,10.10
2015,12,03,11,35,10.10
2015,12,03,11,36,10.10
2015,12,03,11,37,10.10
2015,12,03,11,38,10.10
2015,12,03,11,39,10.10
2015,12,03,11,40,10.10
2015,12,03,11,41,10.10
2015,12,03,11,42,10.20
2015,12,03,11,43,10.20
2015,12,03,11,44,10.20
2015,12,03,11,45,10.30
2015,12,03,11,46,10.30
2015,12,03,11,47,10.30
2015,12,03,11,48,10.30
2015,12,03,11,49,10.40
2015,12,03,11,50,10.40
2015,12,03,11,51,10.40
2015,12,03,11,52,10.40
2015,12,03,11,53,10.40
2015,12,03,11,54,10.40
2015,12,03,11,55,10.40
2015,12,03,11,56,10.40
2015,12,03,11,57,10.40
2015,12,03,11,58,10.40
2015,12,03,11,59,10.30
2015,12,03,12,00,10.30
2015,12,03,12,01,10.30
2015,12,03,12,02,10.30
2015,12,03,12,03,10.30
2015,12,03,12,04,10.30
2015,12,03,12,05,10.30
2015,12,03,12,06,10.30
2015,12,03,12,07,10.30
2015,12,03,12,08,10.30
2015,12,03,12,09,10.40
2015,12,03,12,10,10.50
2015,12,03,12,11,10.60
2015,12,03,12,12,10.60
2015,12,03,12,13,10.70
2015,12,03,12,14,10.70
2015,12,03,12,15,10.80
2015,12,03,12,16,10.80
2015,12,03,12,17,10.90
2015,12,03,12,18,10.90
2015,12,03,12,19,10.90
2015,12,03,12,20,10.90
2015,12,03,12,21,11.00
2015,12,03,12,22,10.90
2015,12,03,12,23,10.90
2015,12,03,12,24,10.90
2015,12,03,12,25,10.90
2015,12,03,12,26,10.90
2015,12,03,12,27,10.90
2015,12,03,12,28,10.90
2015,12,03,12,29,10.90
2015,12,03,12,30,10.80
2015,12,03,12,31,10.80
2015,12,03,12,32,10.80
2015,12,03,12,33,10.80
2015,12,03,12,34,10.70
2015,12,03,12,35,10.70
2015,12,03,12,36,10.70
2015,12,03,12,37,10.70
2015,12,03,12,38,10.70
2015,12,03,12,39,10.70
2015,12,03,12,40,10.60
2015,12,03,12,41,10.60
2015,12,03,12,42,10.70
2015,12,03,12,43,10.70
2015,12,03,12,44,10.70
2015,12,03,12,45,10.70
2015,12,03,12,46,10.80
2015,12,03,12,47,10.80
2015,12,03,12,48,10.90
2015,12,03,12,49,11.00
2015,12,03,12,50,11.10
2015,12,03,12,51,11.20
2015,12,03,12,52,11.30
2015,12,03,12,53,11.40
2015,12,03,12,54,11.50
2015,12,03,12,55,11.60
2015,12,03,12,56,11.70
2015,12,03,12,57,11.80
2015,12,03,12,58,11.80
2015,12,03,12,59,11.80
2015,12,03,13,00,11.80
2015,12,03,13,01,11.80
2015,12,03,13,02,11.80
2015,12,03,13,03,11.70
2015,12,03,13,04,11.70
2015,12,03,13,05,11.60
2015,12,03,13,06,11.50
2015,12,03,13,07,11.50
2015,12,03,13,08,11.40
2015,12,03,13,09,11.40
2015,12,03,13,10,11.30
2015,12,03,13,11,11.30
2015,12,03,13,12,11.20
2015,12,03,13,13,11.20
2015,12,03,13,14,11.20
2015,12,03,13,15,11.20
2015,12,03,13,16,11.20
2015,12,03,13,17,11.20
2015,12,03,13,18,11.20
2015,12,03,13,19,11.20
2015,12,03,13,20,11.10
2015,12,03,13,21,11.20
2015,12,03,13,22,11.20
2015,12,03,13,23,11.20
2015,12,03,13,24,11.20
2015,12,03,13,25,11.20
2015,12,03,13,26,11.20
2015,12,03,13,27,11.20
2015,12,03,13,28,11.20
2015,12,03,13,29,11.20
2015,12,03,13,30,11.20
2015,12,03,13,31,11.20
2015,12,03,13,32,11.20
2015,12,03,13,33,11.20
2015,12,03,13,34,11.20
2015,12,03,13,35,11.20
2015,12,03,13,36,11.20
2015,12,03,13,37,11.20
2015,12,03,13,38,11.20
2015,12,03,13,39,11.20
2015,12,03,13,40,11.20
2015,12,03,13,41,11.20
2015,12,03,13,42,11.20
2015,12,03,13,43,11.20
2015,12,03,13,44,11.10
2015,12,03,13,45,11.10
2015,12,03,13,46,11.20
2015,12,03,13,47,11.20
2015,12,03,13,48,11.20
2015,12,03,13,49,11.20
2015,12,03,13,50,11.20
2015,12,03,13,51,11.20
2015,12,03,13,52,11.20
2015,12,03,13,53,11.20
2015,12,03,13,54,11.20
2015,12,03,13,55,11.20
2015,12,03,13,56,11.20
2015,12,03,13,57,11.20
2015,12,03,13,58,11.20
2015,12,03,13,59,11.10
2015,12,03,14,00,11.10
2015,12,03,14,01,11.10
2015,12,03,14,02,11.10
2015,12,03,14,03,11.00
2015,12,03,14,04,11.00
2015,12,03,14,05,11.00
2015,12,03,14,06,11.00
2015,12,03,14,07,11.00
2015,12,03,14,08,11.00
2015,12,03,14,09,11.00
2015,12,03,14,10,11.10
2015,12,03,14,11,11.10
2015,12,03,14,12,11.10
2015,12,03,14,13,11.10
2015,12,03,14,14,11.10
2015,12,03,14,15,11.00
2015,12,03,14,16,11.00
2015,12,03,14,17,10.90
2015,12,03,14,18,10.90
2015,12,03,14,19,10.90
2015,12,03,14,20,10.80
2015,12,03,14,21,10.80
2015,12,03,14,22,10.80
2015,12,03,14,23,10.80
2015,12,03,14,24,10.70
2015,12,03,14,25,10.70
2015,12,03,14,26,10.70
2015,12,03,14,27,10.70
2015,12,03,14,28,10.60
2015,12,03,14,29,10.60
2015,12,03,14,30,10.60
2015,12,03,14,31,10.50
2015,12,03,14,32,10.50
2015,12,03,14,33,10.50
2015,12,03,14,34,10.50
2015,12,03,14,35,10.50
2015,12,03,14,36,10.50
2015,12,03,14,37,10.60
2015,12,03,14,38,10.60
2015,12,03,14,39,10.70
2015,12,03,14,40,10.80
2015,12,03,14,41,10.80
2015,12,03,14,42,10.90
2015,12,03,14,43,11.00
2015,12,03,14,44,11.10
2015,12,03,14,45,11.10
2015,12,03,14,46,11.20
2015,12,03,14,47,11.20
2015,12,03,14,48,11.40
2015,12,03,14,49,11.40
2015,12,03,14,50,11.50
2015,12,03,14,51,11.60
2015,12,03,14,52,11.70
2015,12,03,14,53,11.90
2015,12,03,14,54,12.00
2015,12,03,14,55,12.10
2015,12,03,14,56,12.20
2015,12,03,14,57,12.20
2015,12,03,14,58,12.20
2015,12,03,14,59,12.20
2015,12,03,15,00,12.10
2015,12,03,15,01,12.00
2015,12,03,15,02,12.00
2015,12,03,15,03,11.90
2015,12,03,15,04,11.90
2015,12,03,15,05,11.90
2015,12,03,15,06,11.80
2015,12,03,15,07,11.80
2015,12,03,15,08,11.80
2015,12,03,15,09,11.70
2015,12,03,15,10,11.70
2015,12,03,15,11,11.60
2015,12,03,15,12,11.50
2015,12,03,15,13,11.40
2015,12,03,15,14,11.30
2015,12,03,15,15,11.20
2015,12,03,15,16,11.10
2015,12,03,15,17,11.10
2015,12,03,15,18,11.00
2015,12,03,15,19,10.90
2015,12,03,15,20,10.80
2015,12,03,15,21,10.80
2015,12,03,15,22,10.70
2015,12,03,15,23,10.70
2015,12,03,15,24,10.70
2015,12,03,15,25,10.60
2015,12,03,15,26,10.60
2015,12,03,15,27,10.60
2015,12,03,15,28,10.50
2015,12,03,15,29,10.50
2015,12,03,15,30,10.50
2015,12,03,15,31,10.50
2015,12,03,15,32,10.50
2015,12,03,15,33,10.40
2015,12,03,15,34,10.40
2015,12,03,15,35,10.40
2015,12,03,15,36,10.40
2015,12,03,15,37,10.30
2015,12,03,15,38,10.30
2015,12,03,15,39,10.30
2015,12,03,15,40,10.20
2015,12,03,15,41,10.20
2015,12,03,15,42,10.20
2015,12,03,15,43,10.20
2015,12,03,15,44,10.20
2015,12,03,15,45,10.20
2015,12,03,15,46,10.20
2015,12,03,15,47,10.20
2015,12,03,15,48,10.20
2015,12,03,15,49,10.20
2015,12,03,15,50,10.20
2015,12,03,15,51,10.10
2015,12,03,15,52,10.10
2015,12,03,15,53,10.00
2015,12,03,15,54,10.00
2015,12,03,15,55,10.00
2015,12,03,15,56,10.00
2015,12,03,15,57,9.90
2015,12,03,15,58,9.90
2015,12,03,15,59,9.90
2015,12,03,16,00,9.90
2015,12,03,16,01,9.80
2015,12,03,16,02,9.80
2015,12,03,16,03,9.80
2015,12,03,16,04,9.80
2015,12,03,16,05,9.80
2015,12,03,16,06,9.80
2015,12,03,16,07,9.80
2015,12,03,16,08,9.90
2015,12,03,16,09,9.90
2015,12,03,16,10,9.90
2015,12,03,16,11,9.90
2015,12,03,16,12,9.90
2015,12,03,16,13,9.80
2015,12,03,16,14,9.80
2015,12,03,16,15,9.80
2015,12,03,16,16,9.80
2015,12,03,16,17,9.80
2015,12,03,16,18,9.80
2015,12,03,16,19,9.80
2015,12,03,16,20,9.80
2015,12,03,16,21,9.80
2015,12,03,16,22,9.80
2015,12,03,16,23,9.80
2015,12,03,16,24,9.80
2015,12,03,16,25,9.80
2015,12,03,16,26,9.80
2015,12,03,16,27,9.80
2015,12,03,16,28,9.70
2015,12,03,16,29,9.70
2015,12,03,16,30,9.70
2015,12,03,16,31,9.70
2015,12,03,16,32,9.70
2015,12,03,16,33,9.70
2015,12,03,16,34,9.70
2015,12,03,16,35,9.70
2015,12,03,16,36,9.70
2015,12,03,16,37,9.70
2015,12,03,16,38,9.70
2015,12,03,16,39,9.70
2015,12,03,16,40,9.60
2015,12,03,16,41,9.60
2015,12,03,16,42,9.60
2015,12,03,16,43,9.60
2015,12,03,16,44,9.60
2015,12,03,16,45,9.60
2015,12,03,16,46,9.60
2015,12,03,16,47,9.60
2015,12,03,16,48,9.60
2015,12,03,16,49,9.60
2015,12,03,16,50,9.60
2015,12,03,16,51,9.60
2015,12,03,16,52,9.60
2015,12,03,16,53,9.60
2015,12,03,16,54,9.60
2015,12,03,16,55,9.60
2015,12,03,16,56,9.60
2015,12,03,16,57,9.60
2015,12,03,16,58,9.60
2015,12,03,16,59,9.60
2015,12,03,17,00,9.60
2015,12,03,17,01,9.60
2015,12,03,17,02,9.60
2015,12,03,17,03,9.60
2015,12,03,17,04,9.60
2015,12,03,17,05,9.60
2015,12,03,17,06,9.50
2015,12,03,17,07,9.50
2015,12,03,17,08,9.50
2015,12,03,17,09,9.40
2015,12,03,17,10,9.40
2015,12,03,17,11,9.30
2015,12,03,17,12,9.30
2015,12,03,17,13,9.20
2015,12,03,17,14,9.20
2015,12,03,17,15,9.20
2015,12,03,17,16,9.10
2015,12,03,17,17,9.10
2015,12,03,17,18,9.10
2015,12,03,17,19,9.10
2015,12,03,17,20,9.00
2015,12,03,17,21,9.00
2015,12,03,17,22,9.00
2015,12,03,17,23,9.00
2015,12,03,17,24,9.00
2015,12,03,17,25,9.00
2015,12,03,17,26,8.90
2015,12,03,17,27,8.90
2015,12,03,17,28,8.90
2015,12,03,17,29,8.90
2015,12,03,17,30,8.90
2015,12,03,17,31,8.80
2015,12,03,17,32,8.80
2015,12,03,17,33,8.80
2015,12,03,17,34,8.80
2015,12,03,17,35,8.70
2015,12,03,17,36,8.70
2015,12,03,17,37,8.70
2015,12,03,17,38,8.70
2015,12,03,17,39,8.60
2015,12,03,17,40,8.60
2015,12,03,17,41,8.60
2015,12,03,17,42,8.60
2015,12,03,17,43,8.60
2015,12,03,17,44,8.60
2015,12,03,17,45,8.60
2015,12,03,17,46,8.70
2015,12,03,17,47,8.70
2015,12,03,17,48,8.70
2015,12,03,17,49,8.80
2015,12,03,17,50,8.80
2015,12,03,17,51,8.80